WB3EGK Weather Reports


Display with metric or nautical units.
time (UTC)temp
F
wind
direction
speed
MPH
gust
MPH
rain 1hr
in
rain 24hr
in
rain mn
in
humidity
%
barometer
mb
20260509224235 64 141 8.0 9.0 0.00 0.26 0.26 1 1002.8
20260509223732 64 220 7.0 10.0 0.00 0.26 0.26 1 1002.7
20260509223229 64 224 8.0 9.0 0.00 0.26 0.26 1 1002.6
20260509222726 64 204 7.0 11.0 0.00 0.26 0.26 1 1002.5
20260509222221 65 263 4.0 5.0 0.00 0.26 0.26 1 1002.4
20260509221717 65 298 7.0 9.0 0.00 0.26 0.26 1 1002.4
20260509221213 65 224 12.0 15.0 0.00 0.26 0.26 1 1002.3
20260509220709 65 227 5.0 8.0 0.00 0.26 0.26 1 1002.3
20260509220206 66 226 6.0 8.0 0.00 0.26 0.26 1 1002.3
20260509215701 66 233 6.0 7.0 0.00 0.26 0.26 1 1002.3
20260509215158 65 270 3.0 5.0 0.00 0.26 0.26 1 1002.5
20260509214656 66 249 8.0 10.0 0.00 0.26 0.26 1 1002.3
20260509214152 66 193 11.0 16.0 0.00 0.26 0.26 1 1002.4
20260509213649 65 220 12.0 17.0 0.00 0.26 0.26 1 1002.3
20260509213145 65 167 12.0 15.0 0.00 0.26 0.26 1 1002.4
20260509212643 65 201 5.0 6.0 0.00 0.26 0.26 1 1002.5
20260509212139 65 219 6.0 9.0 0.00 0.26 0.26 1 1002.6
20260509211635 65 220 14.0 16.0 0.00 0.26 0.26 1 1002.6
20260509211132 64 183 7.0 10.0 0.00 0.26 0.26 1 1002.6
20260509210629 65 220 5.0 8.0 0.00 0.26 0.26 1 1002.6
20260509210126 65 216 9.0 10.0 0.00 0.26 0.26 1 1002.4
20260509205621 65 253 8.0 9.0 0.00 0.26 0.26 1 1002.7
20260509205115 65 192 5.0 7.0 0.00 0.26 0.26 1 1002.7
20260509204612 64 203 11.0 13.0 0.00 0.26 0.26 1 1002.8
20260509204108 65 224 11.0 18.0 0.00 0.26 0.26 1 1002.8
20260509203604 65 232 7.0 8.0 0.00 0.26 0.26 1 1003.0
20260509203103 65 245 3.0 7.0 0.00 0.26 0.26 1 1003.3
20260509202557 65 288 4.0 8.0 0.00 0.26 0.26 1 1003.4
20260509202053 64 278 6.0 8.0 0.00 0.26 0.26 1 1003.4
20260509201547 64 209 3.0 7.0 0.00 0.26 0.26 1 1003.5
20260509201045 64 270 2.0 2.0 0.00 0.26 0.26 1 1003.5
20260509200539 65 199 6.0 7.0 0.00 0.26 0.26 1 1003.6
20260509200036 65 245 5.0 7.0 0.00 0.26 0.26 1 1003.6
20260509195531 65 235 4.0 8.0 0.00 0.26 0.26 1 1003.7
20260509195026 65 208 4.0 7.0 0.00 0.26 0.26 1 1003.6
20260509194521 64 227 11.0 13.0 0.00 0.26 0.26 1 1003.6
20260509194019 64 221 7.0 9.0 0.00 0.26 0.26 1 1003.7
20260509193519 64 222 8.0 9.0 0.00 0.26 0.26 1 1003.7
20260509193016 64 190 5.0 6.0 0.00 0.26 0.26 1 1003.8
20260509192512 64 173 5.0 6.0 0.00 0.26 0.26 1 1004.1
20260509192007 64 226 5.0 8.0 0.00 0.26 0.26 1 1003.9
20260509191502 64 284 4.0 6.0 0.00 0.26 0.26 1 1003.9
20260509190958 64 218 8.0 9.0 0.00 0.26 0.26 1 1003.9
20260509190455 63 262 1.0 2.0 0.00 0.26 0.26 1 1004.3
20260509185953 64 271 3.0 6.0 0.00 0.26 0.26 1 1004.1
20260509185450 63 241 7.0 8.0 0.00 0.26 0.26 1 1004.5
20260509184946 62 225 6.0 9.0 0.00 0.26 0.26 1 1004.4
20260509184445 63 221 10.0 11.0 0.00 0.26 0.26 1 1004.3
20260509183941 63 263 6.0 7.0 0.00 0.26 0.26 1 1004.4
20260509183435 63 250 3.0 3.0 0.00 0.26 0.26 1 1004.6
20260509182932 62 54 3.0 7.0 0.00 0.26 0.26 1 1004.5
20260509182428 61 235 9.0 9.0 0.00 0.26 0.26 1 1004.4
20260509181926 61 231 6.0 8.0 0.00 0.26 0.26 1 1004.4
20260509181424 61 196 9.0 11.0 0.00 0.26 0.26 1 1004.5
20260509180921 61 223 2.0 3.0 0.00 0.26 0.26 1 1004.2
20260509180416 61 221 6.0 7.0 0.00 0.26 0.26 1 1004.3
20260509175913 61 200 7.0 8.0 0.00 0.26 0.26 1 1004.3
20260509175409 60 231 7.0 8.0 0.00 0.26 0.26 1 1004.4
20260509174906 60 194 5.0 7.0 0.00 0.26 0.26 1 1004.4
20260509174402 61 244 7.0 8.0 0.00 0.26 0.26 1 1004.5
20260509173858 61 209 4.0 5.0 0.00 0.26 0.26 1 1004.7
20260509173358 60 202 5.0 6.0 0.00 0.26 0.26 1 1004.7
20260509172854 59 187 5.0 6.0 0.00 0.26 0.26 1 1004.9
20260509172351 57 281 3.0 5.0 0.00 0.26 0.26 1 1004.9
20260509171847 59 200 6.0 8.0 0.00 0.26 0.26 1 1005.0
20260509171343 59 297 4.0 5.0 0.00 0.26 0.26 1 1004.7
20260509170840 58 219 2.0 3.0 0.00 0.26 0.26 1 1004.9
20260509170335 57 205 5.0 6.0 0.00 0.26 0.26 1 1004.9
20260509165830 57 354 3.0 5.0 0.00 0.26 0.26 1 1005.1
20260509165325 56 219 7.0 8.0 0.00 0.26 0.26 1 1005.2
20260509164821 56 228 2.0 2.0 0.00 0.26 0.26 1 1005.3
20260509164318 56 207 3.0 5.0 0.00 0.26 0.26 1 1005.1
20260509163814 55 227 3.0 3.0 0.00 0.26 0.26 1 1005.4
20260509163310 55 206 4.0 6.0 0.00 0.26 0.26 1 1005.3
20260509162810 54 228 3.0 5.0 0.00 0.26 0.26 1 1005.2
20260509162306 54 219 3.0 5.0 0.00 0.26 0.26 1 1005.0
20260509161759 53 188 5.0 6.0 0.00 0.26 0.26 1 1005.4
20260509161255 53 128 1.0 2.0 0.00 0.26 0.26 1 1005.2
20260509160751 53 227 2.0 2.0 0.00 0.26 0.26 1 1005.3
20260509160247 53 219 3.0 3.0 0.00 0.26 0.26 1 1005.0
20260509155742 52 215 4.0 6.0 0.00 0.26 0.26 1 1005.1
20260509155239 52 264 1.0 1.0 0.00 0.26 0.26 1 1005.1
20260509154735 52 264 4.0 5.0 0.00 0.26 0.26 1 1005.1
20260509154232 51 256 3.0 3.0 0.00 0.26 0.26 1 1005.2
20260509153729 52 276 3.0 3.0 0.00 0.26 0.26 1 1004.9
20260509153220 52 188 1.0 1.0 0.00 0.26 0.26 1 1005.3
20260509152716 52 285 1.0 2.0 0.00 0.26 0.26 1 1005.2
20260509152213 51 285 1.0 1.0 0.00 0.26 0.26 1 1005.3
20260509151710 51 234 1.0 1.0 0.00 0.26 0.26 1 1005.2
20260509151207 51 207 2.0 3.0 0.00 0.26 0.26 1 1005.2
20260509150705 51 229 5.0 6.0 0.00 0.26 0.26 1 1005.2
20260509150203 51 274 3.0 3.0 0.00 0.26 0.26 1 1005.0
20260509145659 51 148 4.0 5.0 0.00 0.26 0.26 1 1005.2
20260509145154 51 223 5.0 6.0 0.00 0.26 0.26 1 1005.4
20260509144651 51 162 0.0 1.0 0.00 0.26 0.26 1 1005.3
20260509144148 51 192 3.0 3.0 0.00 0.26 0.26 1 1005.3
20260509143645 51 289 4.0 5.0 0.00 0.26 0.26 1 1005.2
20260509143143 51 290 2.0 2.0 0.00 0.26 0.26 1 1005.2
20260509142638 51 230 3.0 3.0 0.00 0.26 0.26 1 1005.2
20260509142135 50 228 2.0 2.0 0.00 0.26 0.26 1 1005.3
20260509141631 50 280 4.0 6.0 0.00 0.26 0.26 1 1005.2
20260509141127 50 210 2.0 2.0 0.00 0.26 0.26 1 1005.3
20260509140624 50 132 5.0 8.0 0.00 0.26 0.26 1 1005.2
20260509140122 50 241 3.0 3.0 0.00 0.26 0.26 1 1005.3
20260509135619 50 227 3.0 3.0 0.00 0.26 0.26 1 1004.9
20260509135117 50 247 3.0 3.0 0.00 0.26 0.26 1 1005.0
20260509134613 50 216 3.0 3.0 0.00 0.26 0.26 1 1005.1
20260509134111 50 70 0.0 1.0 0.00 0.26 0.26 1 1005.4
20260509133608 50 212 2.0 2.0 0.00 0.26 0.26 1 1005.2
20260509133105 50 183 5.0 6.0 0.00 0.26 0.26 1 1005.3
20260509132603 50 217 4.0 5.0 0.00 0.26 0.26 1 1005.3
20260509132102 50 192 6.0 8.0 0.00 0.26 0.26 1 1005.2
20260509131557 49 252 2.0 2.0 0.00 0.26 0.26 1 1005.3
20260509131054 49 206 1.0 1.0 0.00 0.26 0.26 1 1005.3
20260509130550 49 260 3.0 3.0 0.00 0.26 0.26 1 1005.3
20260509130047 49 208 4.0 5.0 0.00 0.26 0.26 1 1005.4
20260509125543 49 220 4.0 5.0 0.00 0.26 0.26 1 1005.4
20260509125041 49 266 3.0 3.0 0.00 0.26 0.26 1 1005.5
20260509124536 49 247 3.0 5.0 0.00 0.26 0.26 1 1005.4
20260509124034 49 209 3.0 5.0 0.00 0.26 0.26 1 1005.5
20260509123532 49 203 2.0 2.0 0.00 0.26 0.26 1 1005.7
20260509123027 49 218 3.0 3.0 0.00 0.26 0.26 1 1005.6
20260509122524 49 220 3.0 5.0 0.00 0.26 0.26 1 1005.8
20260509122021 49 201 3.0 3.0 0.00 0.26 0.26 1 1005.7
20260509121518 49 148 1.0 1.0 0.00 0.26 0.26 1 1005.6
20260509121016 49 219 3.0 3.0 0.00 0.26 0.26 1 1005.8
20260509120514 49 227 3.0 5.0 0.00 0.26 0.26 1 1005.5
20260509120012 49 212 3.0 3.0 0.00 0.26 0.26 1 1005.7
20260509115508 49 231 4.0 5.0 0.00 0.26 0.26 1 1005.8
20260509115006 48 215 1.0 1.0 0.00 0.26 0.26 1 1005.6
20260509114504 48 195 4.0 5.0 0.00 0.26 0.26 1 1005.7
20260509114003 48 173 3.0 3.0 0.00 0.26 0.26 1 1005.8
20260509113500 48 239 3.0 3.0 0.00 0.26 0.26 1 1005.7
20260509112957 48 244 4.0 6.0 0.00 0.26 0.26 1 1005.6
20260509112454 48 112 1.0 2.0 0.00 0.26 0.26 1 1005.7
20260509111950 48 208 2.0 2.0 0.00 0.26 0.26 1 1005.6
20260509111448 48 142 2.0 2.0 0.00 0.26 0.26 1 1005.6
20260509110946 48 170 2.0 3.0 0.00 0.26 0.26 1 1005.4
20260509110442 48 190 4.0 6.0 0.00 0.26 0.26 1 1005.5
20260509105939 48 102 0.0 0.0 0.00 0.26 0.26 1 1005.5
20260509105438 48 205 3.0 5.0 0.00 0.26 0.26 1 1005.6
20260509104935 48 230 2.0 2.0 0.00 0.26 0.26 1 1005.5
20260509104431 48 201 4.0 6.0 0.00 0.26 0.26 1 1005.6
20260509103928 48 193 2.0 2.0 0.00 0.26 0.26 1 1005.5
20260509103426 48 232 3.0 5.0 0.00 0.26 0.26 1 1005.6
20260509102924 48 203 0.0 0.0 0.07 0.26 0.26 1 1005.7
20260509102421 48 210 2.0 2.0 0.07 0.26 0.26 1 1005.4
20260509101917 48 210 2.0 2.0 0.00 0.25 0.25 1 1005.4
20260509101414 48 222 5.0 7.0 0.05 0.25 0.25 1 1005.5
20260509100911 48 209 4.0 5.0 0.05 0.25 0.25 1 1005.6
20260509100408 48 193 0.0 0.0 0.00 0.24 0.24 1 1005.7
20260509095905 48 144 1.0 2.0 0.00 0.24 0.24 1 1005.7
20260509095402 48 221 4.0 5.0 0.00 0.24 0.24 1 1005.5
20260509094859 48 214 3.0 5.0 0.00 0.24 0.24 1 1005.8
20260509094355 48 218 3.0 3.0 0.07 0.24 0.24 1 1005.8
20260509093854 48 232 5.0 7.0 0.07 0.24 0.24 1 1005.9
20260509093350 48 252 2.0 2.0 0.00 0.23 0.23 1 1005.9
20260509092849 48 207 3.0 3.0 0.00 0.23 0.23 1 1005.9
20260509092346 48 169 3.0 5.0 0.05 0.23 0.23 1 1005.8
20260509091844 48 214 4.0 5.0 0.05 0.23 0.23 1 1005.9
20260509091341 48 232 7.0 9.0 0.00 0.22 0.22 1 1006.1
20260509090838 48 224 2.0 2.0 0.00 0.22 0.22 1 1006.0
20260509090336 48 232 1.0 2.0 0.00 0.22 0.22 1 1005.8
20260509085833 48 211 2.0 2.0 0.07 0.22 0.22 1 1005.8
20260509085330 48 205 3.0 5.0 0.07 0.22 0.22 1 1005.8
20260509084826 48 223 3.0 3.0 0.00 0.21 0.21 1 1005.9
20260509084323 48 208 3.0 3.0 0.07 0.21 0.21 1 1006.1
20260509083821 48 195 3.0 3.0 0.07 0.21 0.21 1 1006.0
20260509083317 48 174 3.0 3.0 0.05 0.20 0.20 1 1006.1
20260509082814 48 218 4.0 5.0 0.05 0.20 0.20 1 1006.2
20260509082310 48 225 2.0 3.0 0.00 0.19 0.19 1 1006.0
20260509081808 48 213 6.0 7.0 0.00 0.19 0.19 1 1006.0
20260509081305 48 220 3.0 3.0 0.00 0.19 0.19 1 1006.1
20260509080803 48 226 3.0 3.0 0.07 0.19 0.19 1 1005.9
20260509080301 48 166 3.0 3.0 0.24 0.19 0.19 1 1006.0
20260509075759 48 181 2.0 2.0 0.24 0.18 0.18 1 1006.1
20260509075255 48 198 2.0 2.0 0.19 0.15 0.15 1 1006.0
20260509074752 48 181 4.0 5.0 0.17 0.14 0.14 1 1006.0
20260509074250 48 209 3.0 3.0 0.05 0.12 0.12 1 1005.8
20260509073746 48 180 2.0 3.0 0.00 0.11 0.11 1 1006.0
20260509073243 48 224 2.0 3.0 0.00 0.11 0.11 1 1005.8
20260509072739 48 230 2.0 3.0 0.07 0.11 0.11 1 1005.9
20260509072236 48 146 1.0 2.0 0.07 0.11 0.11 1 1006.0
20260509071733 48 225 2.0 2.0 0.00 0.10 0.10 1 1006.2
20260509071230 48 227 3.0 3.0 0.00 0.10 0.10 1 1006.0
20260509070727 48 200 2.0 2.0 0.00 0.10 0.10 1 1006.1
20260509070224 48 204 3.0 3.0 0.07 0.10 0.10 1 1005.9
20260509065720 48 221 3.0 3.0 0.07 0.10 0.10 1 1005.9
20260509065216 48 167 1.0 1.0 0.00 0.09 0.09 1 1006.1
20260509064712 48 164 2.0 2.0 0.00 0.09 0.09 1 1006.3
20260509064210 48 182 2.0 2.0 0.05 0.09 0.09 1 1006.3
20260509063708 48 235 5.0 6.0 0.05 0.09 0.09 1 1006.3
20260509063204 48 172 3.0 3.0 0.00 0.08 0.08 1 1006.4
20260509062701 48 175 2.0 2.0 0.00 0.08 0.08 1 1006.8
20260509062158 48 304 3.0 5.0 0.07 0.08 0.08 1 1006.8
20260509061655 48 203 3.0 5.0 0.07 0.08 0.08 1 1006.7
20260509061153 48 200 4.0 5.0 0.00 0.07 0.07 1 1006.9
20260509060650 48 210 5.0 6.0 0.05 0.07 0.07 1 1006.9
20260509060146 48 223 3.0 3.0 0.12 0.07 0.07 1 1007.0
20260509055642 48 182 3.0 3.0 0.19 0.06 0.06 1 1007.2
20260509055138 48 192 4.0 5.0 0.12 0.05 0.05 1 1007.2
20260509054635 48 204 3.0 5.0 0.00 0.03 0.03 1 1007.2
20260509054132 48 213 5.0 6.0 0.05 0.03 0.03 1 1007.2
20260509053631 48 204 4.0 5.0 0.05 0.03 0.03 1 1007.3
20260509053127 48 205 5.0 7.0 0.00 0.02 0.02 1 1007.3
20260509052625 48 257 2.0 2.0 0.00 0.02 0.02 1 1007.5
20260509052122 48 190 7.0 8.0 0.00 0.02 0.02 1 1007.7
20260509051620 48 222 2.0 3.0 0.00 0.02 0.02 1 1007.5
20260509051117 48 210 3.0 5.0 0.00 0.02 0.02 1 1007.6
20260509050614 48 181 3.0 3.0 0.00 0.02 0.02 1 1007.7
20260509050110 48 210 3.0 3.0 0.12 0.02 0.02 1 1007.9
20260509045608 48 182 4.0 5.0 0.12 0.02 0.02 1 1007.9
20260509045105 48 204 4.0 6.0 0.00 0.00 0.00 1 1008.0
20260509044602 48 229 5.0 6.0 0.00 0.00 0.00 1 1008.1
20260509044059 48 176 4.0 5.0 0.00 0.00 0.00 1 1008.2
20260509043556 48 200 3.0 5.0 0.00 0.00 0.00 1 1008.1
20260509043051 48 210 3.0 5.0 0.00 0.00 0.00 1 1008.0
20260509042548 48 159 1.0 2.0 0.00 0.00 0.00 1 1007.8
20260509042044 48 166 3.0 3.0 0.00 0.00 0.00 1 1008.0
20260509041541 48 132 2.0 2.0 0.00 0.00 0.00 1 1008.2
20260509041039 48 170 2.0 3.0 0.00 0.00 0.00 1 1007.9
20260509040537 48 138 1.0 2.0 0.00 0.00 0.00 1 1008.1
20260509040033 48 217 3.0 5.0 0.07 0.00 0.00 1 1008.4
20260509035530 48 188 5.0 7.0 0.07 0.50 0.50 1 1008.2
20260509035027 48 122 3.0 5.0 0.00 0.49 0.49 1 1008.2
20260509034525 48 206 1.0 2.0 0.00 0.49 0.49 1 1008.1
20260509034022 48 154 2.0 2.0 0.00 0.49 0.49 1 1008.3
20260509033518 48 212 3.0 5.0 0.00 0.49 0.49 1 1008.2
20260509033016 48 233 3.0 3.0 0.00 0.49 0.49 1 1008.4
20260509032513 48 187 4.0 5.0 0.00 0.49 0.49 1 1008.4
20260509032010 48 225 4.0 5.0 0.05 0.49 0.49 1 1008.3
20260509031507 48 155 3.0 5.0 0.05 0.49 0.49 1 1008.6
20260509031004 48 222 3.0 3.0 0.00 0.48 0.48 1 1008.6
20260509030502 48 282 3.0 5.0 0.00 0.48 0.48 1 1008.5
20260509025953 48 209 3.0 3.0 0.00 0.48 0.48 1 1008.6
20260509025449 48 224 3.0 5.0 0.00 0.48 0.48 1 1008.7
20260509024944 48 186 3.0 3.0 0.00 0.48 0.48 1 1008.4
20260509024441 48 217 3.0 3.0 0.00 0.48 0.48 1 1008.6
20260509023938 48 205 5.0 6.0 0.00 0.48 0.48 1 1008.7
20260509023435 48 199 3.0 5.0 0.07 0.48 0.48 1 1008.8
20260509022932 48 209 3.0 3.0 0.07 0.48 0.48 1 1008.5
20260509022429 48 193 2.0 3.0 0.00 0.47 0.47 1 1008.9
20260509021926 48 210 2.0 2.0 0.07 0.47 0.47 1 1009.0
20260509021423 48 218 3.0 3.0 0.12 0.47 0.47 1 1009.0
20260509020920 48 263 2.0 2.0 0.12 0.46 0.46 1 1009.1
20260509020419 48 273 1.0 1.0 0.12 0.45 0.45 1 1009.1
20260509015915 48 238 3.0 3.0 0.12 0.44 0.44 1 1008.9
20260509015414 48 142 0.0 0.0 0.07 0.43 0.43 1 1008.7
20260509014910 48 170 0.0 0.0 0.12 0.42 0.42 1 1008.8
20260509014407 48 142 0.0 1.0 0.12 0.41 0.41 1 1009.0
20260509013903 48 207 1.0 1.0 0.17 0.40 0.40 1 1008.8
20260509013400 48 190 1.0 1.0 0.19 0.39 0.39 1 1008.8
20260509012856 48 217 3.0 3.0 0.12 0.37 0.37 1 1008.7
20260509012353 48 201 1.0 2.0 0.19 0.36 0.36 1 1008.7
20260509011850 48 228 2.0 2.0 0.26 0.35 0.35 1 1008.6
20260509011348 48 181 0.0 0.0 0.17 0.33 0.33 1 1008.7
20260509010845 48 135 0.0 0.0 0.17 0.31 0.31 1 1008.7
20260509010343 48 156 1.0 1.0 0.19 0.30 0.30 1 1008.6
20260509005839 48 195 1.0 1.0 0.17 0.29 0.29 1 1008.4
20260509005338 48 160 0.0 1.0 0.12 0.27 0.27 1 1008.4
20260509004837 48 245 3.0 3.0 0.12 0.26 0.26 1 1008.3
20260509004334 48 67 0.0 0.0 0.12 0.25 0.25 1 1008.2
20260509003832 48 207 0.0 0.0 0.12 0.24 0.24 1 1008.3
20260509003329 48 215 2.0 2.0 0.05 0.23 0.23 1 1008.3
20260509002826 48 213 1.0 1.0 0.07 0.22 0.22 1 1008.1
20260509002324 48 164 0.0 0.0 0.07 0.22 0.22 1 1007.9
20260509001822 48 151 2.0 2.0 0.00 0.21 0.21 1 1008.2
20260509001317 48 172 3.0 5.0 0.00 0.21 0.21 1 1008.1
20260509000815 49 207 2.0 2.0 0.00 0.21 0.21 1 1008.2
20260509000312 49 243 5.0 7.0 0.00 0.21 0.21 1 1008.2
20260508235803 49 220 3.0 3.0 0.00 0.21 0.21 1 1008.3
20260508235300 50 245 3.0 3.0 0.00 0.21 0.21 1 1008.5
20260508234757 50 224 2.0 2.0 0.00 0.21 0.21 1 1008.3
20260508234253 50 206 2.0 2.0 0.00 0.21 0.21 1 1008.3
20260508233752 50 117 0.0 0.0 0.07 0.21 0.21 1 1008.2
20260508233251 50 151 0.0 0.0 0.07 0.21 0.21 1 1008.3
20260508232748 50 81 0.0 0.0 0.00 0.20 0.20 1 1008.2
20260508232244 50 79 0.0 0.0 0.00 0.20 0.20 1 1007.9
20260508231743 50 80 0.0 0.0 0.00 0.20 0.20 1 1008.0
20260508231238 50 78 0.0 0.0 0.00 0.20 0.20 1 1008.1
20260508230736 50 73 0.0 0.0 0.00 0.20 0.20 1 1007.8
20260508230232 50 74 0.0 0.0 0.05 0.20 0.20 1 1007.7
20260508225730 51 98 0.0 0.0 0.05 0.20 0.20 1 1007.8
20260508225226 51 233 1.0 3.0 0.07 0.19 0.19 1 1008.0
20260508224724 51 77 0.0 0.0 0.07 0.19 0.19 1 1007.9